Location: Az?znagar
(16.8373°N, 80.5091°E)
Time: 18:13:39
(UTC+00:00)

CZ-4C R/B - Pass Details

Date: 03 July 2022
Orbit: 395 x 462 km, 97.7° (Epoch: 09 August)

Event Time Altitude Azimuth Distance (km) Brightness Sun altitude
Rises 14:05:34 0° 1° (N) 2,443 7.0 -11.6°
Reaches altitude 10° 14:07:38 10° 354° (N) 1,582 6.1 -12.0°
Maximum altitude 14:10:52 42° 283° (WNW) 666 4.3 -12.7°
Drops below altitude 10° 14:14:08 10° 211° (SSW) 1,604 5.7 -13.4°
Sets 14:16:15 0° 204° (SSW) 2,482 6.6 -13.8°
